Theta_e
307 309 318 320 323 324 321 322 321 318 317 316 318 318 318 318 318 319 318 319 320 321 321 322 325 326 334 346 344 345 346 346 349 349 349 348 347 347 346 344 345 344 347 347
308 308 314 318 319 320 322 322 323 322 320 320 318 318 318 318 318 319 318 318 318 319 321 321 322 327 332 345 346 345 346 346 348 348 349 347 347 346 346 345 345 344 346 347
308 308 308 314 318 320 321 322 322 323 325 325 321 321 319 318 318 318 318 319 319 319 320 323 324 328 333 343 348 342 346 346 347 347 348 347 346 346 345 346 345 345 345 346
310 308 308 311 315 319 321 320 321 321 322 325 322 325 321 320 321 320 318 319 319 320 321 321 323 325 331 341 343 344 344 347 346 346 346 346 346 345 346 346 346 346 345 345
312 312 307 308 314 316 318 317 319 322 321 323 324 324 322 320 322 323 321 321 322 321 320 321 321 324 329 328 329 336 342 346 348 346 346 346 346 346 346 347 347 347 346 345
309 310 312 308 310 314 315 318 319 319 323 325 323 327 327 324 324 324 322 321 321 322 321 321 321 321 322 327 329 329 330 334 335 344 350 350 351 350 349 349 349 350 348 347
309 309 312 311 312 310 314 318 324 326 329 331 321 324 327 323 323 323 323 324 323 323 322 321 322 322 322 321 321 328 330 329 328 328 330 352 351 350 349 348 349 350 350 350
312 313 312 313 314 314 312 317 323 325 329 323 322 321 320 321 319 320 319 321 322 321 324 322 321 322 323 324 323 324 324 328 329 329 328 328 347 350 349 347 346 344 350 350
312 310 309 312 314 314 314 313 317 324 324 325 319 319 319 318 319 319 319 320 322 322 322 322 322 322 321 321 322 322 323 324 324 326 325 330 328 334 346 346 348 345 347 348
307 308 309 310 310 315 316 317 320 324 329 325 321 319 320 321 320 318 321 321 320 320 320 321 320 320 318 318 320 322 324 325 324 322 322 332 331 329 335 346 346 346 345 347
304 306 307 307 313 313 317 318 317 322 324 323 322 321 321 322 322 319 318 318 318 318 318 319 317 316 316 316 316 321 323 326 328 330 327 325 326 340 340 341 342 345 343 343
303 305 309 306 307 310 311 310 311 315 318 317 323 323 320 318 319 318 315 314 313 314 314 315 316 315 315 314 313 315 319 321 323 326 329 333 333 330 331 342 344 345 345 345
303 307 309 308 309 306 307 309 310 311 313 313 315 321 318 319 316 316 315 314 313 312 312 312 313 312 312 311 311 310 314 316 319 320 322 327 335 337 335 333 336 343 345 345
305 305 304 306 305 304 303 303 309 310 310 310 312 311 310 315 314 313 312 311 311 311 311 311 311 311 310 309 309 309 310 313 314 315 318 321 327 330 333 336 339 339 344 345
305 305 304 302 302 302 301 301 302 303 307 309 309 308 308 308 312 310 310 309 308 308 309 309 310 309 309 309 308 308 309 309 311 313 315 318 320 326 328 329 335 338 341 343
303 304 303 304 302 302 302 302 302 302 302 303 303 304 305 306 306 306 307 307 307 307 307 307 308 308 308 307 306 307 308 308 309 309 313 314 317 319 325 323 323 329 332 337
303 305 304 305 303 303 304 303 303 303 303 303 302 303 303 304 304 304 304 304 304 305 305 306 306 307 307 306 306 307 307 307 307 309 309 312 314 317 320 320 317 320 324 328
302 303 304 305 303 304 304 304 303 302 302 303 303 303 303 303 304 305 305 307 307 306 306 307 307 306 306 306 306 306 306 306 307 308 308 310 311 315 316 318 318 315 319 320
301 303 304 304 304 303 302 304 303 302 302 306 305 304 306 306 306 305 306 306 306 306 307 307 306 306 306 305 305 305 306 306 306 307 308 309 311 311 312 315 317 315 315 316
300 301 304 305 306 306 304 303 304 303 303 305 305 305 305 305 306 306 306 306 306 306 306 306 305 305 305 305 306 306 306 306 306 307 307 308 309 310 310 312 315 314 311 313
302 304 305 305 304 302 302 304 304 304 305 304 303 304 305 305 305 306 306 305 305 305 306 306 306 306 305 305 305 306 306 306 306 307 307 308 308 310 309 311 313 312 310 309
301 303 304 304 304 305 304 303 302 303 304 304 304 305 306 306 306 306 305 305 305 305 305 305 306 306 306 306 306 306 306 305 305 306 307 307 308 309 310 310 312 308 308 306
302 302 303 302 303 303 302 302 302 303 304 304 305 305 305 305 305 305 305 305 305 306 305 305 306 306 306 306 306 306 306 306 306 306 307 308 309 309 310 309 309 306 305 303
300 300 302 302 301 301 302 302 302 302 304 304 304 304 304 305 305 305 305 305 305 305 305 305 305 306 306 306 306 306 306 306 306 306 307 308 309 310 309 307 304 304 301 300
300 300 300 302 301 301 302 302 303 303 303 303 304 304 305 305 304 304 303 303 303 303 302 303 304 305 306 307 306 306 306 306 306 307 307 307 307 309 308 306 304 303 302 303
300 301 303 304 303 303 303 304 303 303 304 305 305 304 304 303 302 301 301 301 301 301 300 301 301 303 304 306 306 306 307 307 308 307 307 307 307 308 304 301 301 301 300 301
Wind_Speed
22 18 17 25 26 26 27 27 31 24 22 28 25 27 24 20 21 21 20 16 11 17 21 23 23 30 25 31 28 42 40 38 35 32 32 29 31 29 29 32 28 32 35 35
20 24 27 24 28 29 29 29 30 24 24 22 25 31 26 22 24 20 18 15 14 16 15 18 25 25 27 25 29 39 40 41 37 32 31 29 29 29 31 31 32 34 34 37
22 25 28 28 27 29 27 27 24 26 22 22 19 29 25 26 19 19 20 16 16 16 13 9 12 17 26 21 11 34 40 42 40 35 29 28 25 26 28 33 34 34 35 36
12 25 27 30 31 28 25 23 25 24 21 18 1 16 21 20 18 19 19 18 13 11 11 13 10 6 18 20 18 16 32 36 39 39 34 30 29 27 31 32 32 34 38 38
15 15 26 29 30 29 24 22 24 20 21 17 20 13 17 18 20 22 18 14 12 11 13 15 14 10 23 24 22 24 21 24 34 40 36 35 31 31 29 28 30 34 35 40
20 19 18 18 26 25 27 24 24 17 10 14 21 14 13 17 20 26 22 25 24 20 20 17 16 15 8 11 26 28 29 28 26 29 39 37 31 31 28 28 29 31 33 38
19 16 13 15 17 21 17 19 9 4 5 6 20 16 19 14 20 22 19 7 13 21 18 13 10 1 6 12 14 11 28 27 31 34 32 36 36 34 33 28 28 31 31 32
8 5 17 14 15 17 18 17 8 11 5 16 18 19 22 22 21 21 6 9 10 9 9 9 6 5 9 17 20 17 14 7 22 27 32 32 29 31 31 33 28 31 29 34
7 8 10 18 15 16 16 18 19 17 7 5 7 10 24 18 20 26 18 10 11 11 7 12 12 13 16 15 17 20 19 16 14 12 23 30 37 31 30 32 31 34 28 33
10 10 3 11 16 10 2 6 5 5 6 10 7 15 11 8 11 17 10 14 12 10 9 9 8 9 14 16 16 16 16 16 18 19 16 12 33 33 30 28 32 28 32 24
16 9 12 9 3 6 4 2 5 4 3 5 5 11 11 11 13 17 17 14 11 9 8 7 6 9 11 12 15 13 11 14 15 15 15 16 13 13 22 27 30 28 33 33
13 7 12 13 4 6 11 7 3 4 4 3 4 4 14 14 14 14 13 11 8 7 5 5 6 6 7 6 7 11 12 12 16 16 16 14 12 12 11 15 21 25 26 26
12 7 10 9 7 18 10 3 1 4 2 2 0 5 13 17 20 20 10 9 11 9 10 7 6 4 6 8 9 13 13 12 14 16 18 18 12 12 15 16 16 21 25 27
5 7 12 8 8 10 14 15 6 1 2 6 7 19 18 13 16 17 12 7 13 10 7 7 7 4 4 6 6 7 13 14 15 15 16 18 19 18 17 16 14 18 22 27
3 6 13 16 17 17 18 17 15 12 11 11 14 18 17 13 11 13 22 9 14 13 10 7 7 8 10 10 8 9 7 11 14 14 15 15 17 16 14 16 13 12 12 22
11 6 14 15 18 17 16 15 15 16 16 17 18 19 16 14 13 11 7 12 13 12 10 8 10 9 7 8 10 13 10 13 11 13 14 15 12 15 13 16 15 13 12 16
12 8 9 13 14 18 12 12 14 13 11 11 12 14 11 14 14 11 11 12 12 11 10 11 10 9 9 12 14 10 15 18 17 15 17 16 13 12 13 16 18 16 15 16
13 12 8 10 13 9 8 12 13 11 11 13 15 16 15 14 10 10 10 17 17 16 15 14 13 11 12 12 12 16 18 19 20 18 19 19 15 10 11 13 17 16 16 17
8 9 5 4 8 15 20 3 2 6 10 19 16 16 17 20 19 9 11 13 13 14 14 14 17 21 21 15 16 18 21 22 21 20 17 20 16 12 13 13 13 15 15 19
6 4 3 4 5 5 4 9 12 6 7 10 14 19 19 19 11 10 17 19 14 14 16 16 20 23 24 25 21 21 20 20 25 23 21 21 21 15 13 17 12 13 13 18
2 2 8 8 9 10 15 13 17 9 8 18 15 16 17 14 13 18 17 17 17 20 22 24 22 21 23 25 28 25 25 24 25 24 24 22 22 19 16 13 11 11 12 16
8 5 7 7 7 8 10 13 11 12 16 15 15 15 14 15 16 17 17 18 18 19 23 26 24 23 25 26 26 26 26 34 27 27 26 24 22 18 14 10 11 13 11 15
11 10 6 6 9 18 21 14 14 14 14 15 15 15 16 16 17 18 18 18 18 17 22 27 25 23 30 26 26 26 30 29 31 28 27 25 20 19 16 13 12 13 16 18
14 15 9 13 12 17 19 18 17 16 15 16 16 16 15 18 16 17 16 16 17 18 20 27 27 22 20 31 25 25 26 25 26 28 28 24 22 22 24 17 16 19 21 20
12 15 14 17 18 18 16 17 16 17 17 17 17 16 16 16 16 16 16 17 16 18 23 26 25 25 25 27 30 27 25 24 24 25 29 30 27 22 23 22 19 22 25 26
13 16 9 11 16 17 16 17 19 17 16 17 17 17 18 17 18 19 17 17 19 18 26 25 30 30 29 28 27 24 27 22 21 21 23 26 27 25 23 21 20 20 23 25
Wind_Direction
228 221 226 229 224 233 235 232 230 243 235 224 239 234 229 222 255 259 230 236 265 240 218 236 216 205 217 203 190 173 176 182 187 192 191 198 203 200 203 208 207 206 203 201
243 222 223 236 237 237 242 237 245 240 235 245 229 234 228 218 219 236 254 196 240 260 242 220 222 203 200 204 204 174 175 179 186 196 198 199 201 205 205 207 210 209 207 202
232 235 223 227 235 242 236 245 243 254 255 250 229 258 240 215 222 244 229 241 216 240 265 256 215 203 188 197 193 179 178 179 185 193 201 199 208 206 208 209 211 210 208 207
263 234 238 218 233 238 244 250 247 252 252 247 41 260 246 224 217 230 243 242 212 233 272 283 281 201 179 183 193 191 189 184 186 189 195 200 202 206 207 208 207 207 209 209
260 279 231 246 222 230 248 253 260 262 247 264 252 243 249 234 225 236 227 231 218 211 250 267 271 269 173 188 204 212 217 184 192 192 197 201 211 214 213 209 209 208 210 210
260 269 290 258 247 245 230 235 253 260 291 260 225 237 243 240 231 225 221 222 223 201 207 223 249 260 307 179 194 198 206 218 219 207 202 205 208 215 212 211 210 204 207 208
318 250 239 262 286 240 230 236 223 258 222 235 237 223 239 248 262 279 287 297 8 200 197 204 219 261 9 323 311 206 204 208 214 219 223 212 213 217 222 221 214 210 206 206
352 277 355 346 290 271 215 216 234 210 221 240 226 230 234 236 267 270 340 61 60 20 65 62 57 37 12 16 4 3 350 257 211 217 223 229 219 217 220 225 227 228 214 212
329 348 344 327 313 279 259 235 217 253 275 305 269 246 242 240 224 247 251 142 62 61 61 51 51 44 27 6 352 354 350 342 316 288 246 226 223 224 222 226 226 227 229 219
323 319 23 313 337 293 164 7 255 162 215 232 240 233 243 250 271 232 112 86 83 76 59 55 47 57 42 23 6 358 342 323 309 306 308 307 216 224 225 222 226 227 230 227
339 337 326 341 355 330 13 95 342 4 278 251 228 210 88 48 32 63 70 69 63 62 70 69 50 35 41 23 7 353 347 334 325 318 301 300 299 235 219 226 227 233 230 231
350 306 317 300 220 42 68 17 61 341 34 353 332 261 60 50 64 64 64 46 53 32 36 40 77 56 44 34 18 348 351 359 351 341 330 315 306 297 286 242 231 231 232 228
336 340 339 4 96 4 346 154 77 141 188 327 254 272 33 25 17 7 16 352 345 353 355 357 24 49 52 14 7 357 339 359 350 346 342 337 323 289 285 280 270 243 235 227
340 319 321 323 323 295 308 319 160 14 295 308 278 288 300 323 356 333 312 319 295 298 278 303 323 340 25 349 339 1 333 354 342 343 339 340 343 330 326 338 282 259 246 226
11 307 327 326 322 306 296 291 289 279 244 251 274 277 283 286 189 237 272 258 275 287 283 276 279 299 304 310 329 313 321 331 322 336 330 337 332 331 322 317 326 294 262 239
324 306 318 304 303 291 298 306 308 293 280 277 278 276 287 280 276 272 271 274 278 284 290 278 264 269 296 310 315 311 324 304 314 317 312 316 321 323 329 321 316 301 288 264
283 282 289 290 310 330 300 270 263 268 294 299 274 289 324 311 304 327 344 338 315 310 297 285 289 291 290 299 297 314 325 320 310 302 306 299 301 301 306 313 316 303 291 269
271 266 273 279 300 274 249 290 314 291 280 282 288 280 286 293 329 3 8 30 13 6 357 350 345 314 312 307 326 327 313 305 304 296 298 293 288 296 303 297 308 307 291 281
244 262 256 246 262 282 292 336 310 339 313 15 335 327 2 11 2 296 343 26 345 325 322 320 317 317 322 308 308 308 302 302 291 289 289 297 292 296 305 292 295 308 287 278
244 252 227 273 278 276 328 314 312 314 297 13 335 341 338 338 329 323 337 333 322 306 294 288 288 288 288 290 284 277 278 284 284 288 284 283 294 290 299 303 278 288 281 269
234 253 242 261 265 266 268 339 317 271 349 320 327 322 328 323 318 315 318 310 303 299 298 291 275 269 269 265 269 270 272 266 270 276 278 276 273 275 276 284 269 272 273 259
305 292 280 272 268 277 22 350 344 304 303 313 321 319 321 318 317 310 303 301 306 302 298 298 296 284 269 262 260 259 256 267 273 272 273 270 269 267 265 276 272 271 248 231
281 283 281 254 292 304 294 280 300 305 306 312 321 316 300 301 301 303 305 305 302 306 305 300 292 292 302 264 258 256 257 258 259 263 264 266 267 261 261 261 260 234 222 217
303 316 309 300 289 294 298 304 302 299 312 303 293 296 308 301 301 304 305 302 296 293 291 293 298 295 280 291 268 258 264 264 257 257 260 264 264 250 245 262 266 241 215 204
292 299 287 284 294 292 301 301 300 297 294 293 294 312 311 305 297 297 304 304 301 301 307 309 307 301 299 298 290 281 262 258 252 252 253 254 253 247 232 240 248 246 243 232
271 270 274 274 284 293 294 288 292 293 314 329 322 311 300 312 313 312 307 303 303 303 299 297 297 299 299 306 304 298 301 310 288 262 253 247 244 219 213 217 224 243 248 246